[[{"header":{"parameterUnit":"m.s-1","parameterCategory":1,"la1":30.2991,"la2":30.254,"lo1":-89.0895,"lo2":-89.0444,"dy":0.0017,"dx":0.0017,"nx":28,"ny":28,"refTime":"2024-02-08T09:00:00:Z","depth":0,"parameterNumber":2,"parameterNumberName":"U-component_of_WINDS"},"data":[0,0,0,0,0,0,0,0,0,0,0,0,0,0,0,0,0,0,0,0,0,0,0,0,0,0,0,0,0,0,0,0,0,0,0,0,0,0,0,0,0,0,0,0,0,0,0,0,0,0,0,0,0,0,0,0,0,0,-3.1265,-3.1265,0,-3.1247,-3.1247,-3.1247,-3.1193,-3.1191,-3.119,-3.1189,-3.1171,-3.1172,-3.1173,0,0,0,0,0,0,0,0,0,0,0,0,0,-3.1255,-3.1256,-3.1265,-3.1265,-3.1265,-3.1247,-3.1247,-3.1247,-3.1193,-3.1191,-3.119,-3.1189,-3.1171,-3.1172,-3.1173,0,0,0,0,0,0,0,0,0,0,0,0,0,-3.1251,-3.1256,-3.1265,-3.1236,-3.1233,-3.1247,-3.1247,-3.1246,-3.1193,-3.1191,-3.119,-3.1188,-3.1171,-3.1172,-3.1173,-3.1214,0,0,-3.1176,-3.1176,0,0,0,0,0,0,0,0,-3.1251,-3.1251,-3.124,-3.1238,-3.1235,-3.122,-3.1237,-3.1236,-3.1194,-3.1208,-3.1189,-3.1187,-3.1189,-3.1188,-3.1189,-3.1214,-3.1213,-3.1176,-3.1176,-3.1177,-3.1177,0,0,0,0,0,0,0,-3.1251,-3.1252,-3.1258,-3.124,-3.1237,-3.1224,-3.1222,-3.1236,-3.1209,-3.1207,-3.1203,-3.1201,-3.1187,-3.1188,-3.1188,-3.1212,-3.1176,-3.1177,-3.1177,-3.1178,-3.1272,-3.1274,0,0,0,0,0,0,-3.1256,-3.1252,-3.1258,-3.1257,-3.1239,-3.1226,-3.1223,-3.1227,-3.1209,-3.1204,-3.1203,-3.1199,-3.1187,-3.1187,-3.1187,-3.1235,-3.1177,-3.1178,-3.1178,-3.127,-3.1272,-3.1274,0,0,0,0,0,0,-3.1256,-3.1257,-3.1259,-3.1254,-3.1253,-3.1228,-3.1233,-3.1227,-3.1228,-3.1206,-3.1201,-3.1209,-3.1186,-3.1186,-3.1208,-3.1233,-3.1178,-3.1179,-3.1268,-3.1271,-3.1273,-3.133,0,0,0,0,0,0,-3.1256,-3.1257,-3.1272,-3.1254,-3.1254,-3.128,-3.1234,-3.1228,-3.123,-3.1224,-3.121,-3.1206,-3.1185,-3.1207,-3.1209,-3.1234,-3.118,-3.1265,-3.1269,-3.1272,-3.1325,-3.1334,-3.1342,0,0,0,0,0,-3.1256,-3.1288,-3.1273,-3.1274,-3.1271,-3.1281,-3.1281,-3.1255,-3.1232,-3.1247,-3.1233,-3.1206,-3.1231,-3.121,-3.1212,-3.1237,-3.1263,-3.1268,-3.1272,-3.1322,-3.1333,-3.1342,0,0,0,0,0,0,-3.1308,-3.1285,-3.1268,-3.1296,-3.1291,-3.1272,-3.1289,-3.1268,-3.1269,-3.1264,-3.1233,-3.1231,-3.1257,-3.125,-3.1227,-3.1277,-3.1243,-3.1248,-3.128,-3.129,-3.1298,-3.1298,-3.1181,0,0,0,0,0,-3.1324,-3.1333,-3.1313,-3.1339,-3.1338,-3.1315,-3.1318,-3.13,-3.1293,-3.1291,-3.1278,-3.1274,-3.128,-3.1285,-3.129,-3.1326,-3.1322,-3.1344,-3.1352,-3.1359,-3.1363,-3.1381,-3.1391,-3.1289,-3.1288,-3.1288,0,0,-3.1354,-3.1343,-3.1351,-3.135,-3.1344,-3.1355,-3.1313,-3.1326,-3.1334,-3.1293,-3.1312,-3.1304,-3.1297,-3.1326,-3.1338,-3.132,-3.1391,-3.1365,-3.137,-3.137,-3.1387,-3.1396,-3.1405,-3.1291,-3.1291,-3.129,0,0,-3.1416,-3.1408,-3.143,-3.1425,-3.1417,-3.1402,-3.1408,-3.1393,-3.1385,-3.1405,-3.1374,-3.1385,-3.1397,-3.1393,-3.1393,-3.1457,-3.1432,-3.146,-3.1501,-3.152,-3.1528,-3.1535,-3.1557,-3.1565,-3.1465,-3.1465,-3.1465,0,-3.1455,-3.1469,-3.1444,-3.1459,-3.146,-3.1425,-3.1447,-3.1444,-3.1438,-3.144,-3.142,-3.1436,-3.1429,-3.1457,-3.1473,-3.1474,-3.148,-3.146,-3.1529,-3.1535,-3.1542,-3.1562,-3.1571,-3.1468,-3.1468,-3.1467,-3.1467,0,-3.1518,-3.1529,-3.1547,-3.1543,-3.1546,-3.1565,-3.1543,-3.155,-3.1533,-3.152,-3.1542,-3.1533,-3.1535,-3.1542,-3.1524,-3.1568,-3.1557,-3.1534,-3.1499,-3.1555,-3.1574,-3.1582,-3.1473,-3.1471,-3.1471,-3.147,0,0,-3.1608,-3.1591,-3.1598,-3.1596,-3.1586,-3.1594,-3.1613,-3.1616,-3.1623,-3.1621,-3.1636,-3.1649,-3.1628,-3.1628,-3.1611,-3.1627,-3.1678,-3.1602,-3.1602,-3.1615,-3.1725,-3.1741,-3.1751,-3.1664,-3.1665,-3.1666,-3.1726,0,-3.1664,-3.1693,-3.1673,-3.1705,-3.1716,-3.1684,-3.17,-3.1697,-3.1687,-3.1695,-3.1684,-3.1693,-3.1665,-3.1665,-3.1681,-3.1669,-3.17,-3.1665,-3.1676,-3.1677,-3.1676,-3.1761,-3.1777,-3.1833,-3.1733,-3.1734,-3.1735,0,-3.1733,-3.1735,-3.1769,-3.1759,-3.1762,-3.1777,-3.1779,-3.1787,-3.1783,-3.1775,-3.1777,-3.1756,-3.1774,-3.1743,-3.1768,-3.1744,-3.1749,-3.1744,-3.1746,-3.1744,-3.1707,-3.1759,-3.185,-3.1858,-3.1747,-3.1746,-3.1745,0,-3.1794,-3.1806,-3.1827,-3.1827,-3.1816,-3.1827,-3.1823,-3.1817,-3.1821,-3.1824,-3.1826,-3.1831,-3.1834,-3.1839,-3.182,-3.1799,-3.1848,-3.1814,-3.1841,-3.1842,-3.185,-3.185,-3.1942,-3.1857,-3.1857,-3.1857,-3.1857,0,-3.1858,-3.188,-3.1855,-3.1868,-3.1892,-3.1869,-3.1894,-3.1887,-3.1883,-3.1895,-3.1869,-3.1881,-3.1857,-3.1868,-3.1854,-3.1877,-3.1879,-3.1872,-3.1868,-3.1873,-3.1874,-3.1873,-3.1868,-3.1859,-3.1859,-3.1858,-3.1858,0,-3.1928,-3.1912,-3.1934,-3.1923,-3.192,-3.1939,-3.1929,-3.1941,-3.1931,-3.1947,-3.1949,-3.1933,-3.1943,-3.1927,-3.1936,-3.1927,-3.1958,-3.1949,-3.1959,-3.1955,-3.1983,-3.198,-3.2076,-3.2087,-3.1998,-3.1998,-3.1999,0,-3.1969,-3.1985,-3.1976,-3.1982,-3.1979,-3.199,-3.1994,-3.1974,-3.1979,-3.1978,-3.1991,-3.2,-3.2005,-3.2024,-3.2013,-3.202,-3.201,-3.2043,-3.2011,-3.2016,-3.2009,-3.2007,-3.2008,-3.2049,-3.205,-3.2051,-3.2052,0,-3.2042,-3.2034,-3.2041,-3.2046,-3.2052,-3.2055,-3.2056,-3.2062,-3.2041,-3.2049,-3.206,-3.2065,-3.2075,-3.2084,-3.2089,-3.2085,-3.2065,-3.2063,-3.2069,-3.2073,-3.2078,-3.2074,-3.1975,-3.206,-3.2059,-3.2058,-3.2058,-3.2058,-3.2098,-3.2111,-3.2107,-3.2116,-3.2115,-3.2117,-3.2128,-3.212,-3.2128,-3.2134,-3.2123,-3.2137,-3.2135,-3.214,-3.2139,-3.215,-3.2136,-3.2145,-3.2147,-3.2149,-3.2153,-3.2078,-3.2152,-3.2151,-3.2151,-3.2151,-3.2151,0,-3.2168,-3.2165,-3.2174,-3.2176,-3.2184,-3.2166,-3.2167,-3.2174,-3.2187,-3.2187,-3.2193,-3.2207,-3.2216,-3.2208,-3.2216,-3.2226,-3.2218,-3.2229,-3.2227,-3.2226,-3.2166,-3.2159,-3.2236,-3.2236,-3.2236,-3.2236,-3.2236,-3.2236,-3.2206,-3.2227,-3.2219,-3.2241,-3.2237,-3.225,-3.2252,-3.2255,-3.2255,-3.2271,-3.2278,-3.2273,-3.227,-3.2278,-3.2287,-3.2284,-3.2287,-3.2302,-3.2296,-3.2239,-3.2231,-3.2222,-3.2216,-3.2303,-3.2304,-3.2355,-3.2356,-3.2356]},{"header":{"parameterUnit":"m.s-1","parameterCategory":1,"la1":30.2991,"la2":30.254,"lo1":-89.0895,"lo2":-89.0444,"dy":0.0017,"dx":0.0017,"nx":28,"ny":28,"refTime":"2024-02-08T09:00:00:Z","depth":0,"parameterNumber":3,"parameterNumberName":"V-component_of_WINDS"},"data":[0,0,0,0,0,0,0,0,0,0,0,0,0,0,0,0,0,0,0,0,0,0,0,0,0,0,0,0,0,0,0,0,0,0,0,0,0,0,0,0,0,0,0,0,0,0,0,0,0,0,0,0,0,0,0,0,0,0,3.3031,3.3031,0,3.2975,3.2974,3.2974,3.2879,3.2877,3.2875,3.2874,3.2812,3.2812,3.2812,0,0,0,0,0,0,0,0,0,0,0,0,0,3.3059,3.3059,3.3031,3.3031,3.303,3.2975,3.2974,3.2973,3.2879,3.2877,3.2875,3.2873,3.2812,3.2812,3.2812,0,0,0,0,0,0,0,0,0,0,0,0,0,3.3029,3.3059,3.3032,3.2976,3.2971,3.2975,3.2974,3.2973,3.288,3.2877,3.2874,3.2872,3.2812,3.2812,3.2812,3.2865,0,0,3.2812,3.2812,0,0,0,0,0,0,0,0,3.3031,3.3028,3.2985,3.298,3.2974,3.2931,3.2961,3.2937,3.288,3.2914,3.2874,3.2871,3.2854,3.285,3.2845,3.2862,3.2859,3.2812,3.2812,3.2812,3.2812,0,0,0,0,0,0,0,3.3033,3.303,3.3009,3.2985,3.2978,3.2955,3.2948,3.2956,3.2899,3.2911,3.2904,3.2899,3.285,3.2846,3.2843,3.2858,3.2812,3.2812,3.2812,3.2812,3.2921,3.2924,0,0,0,0,0,0,3.3044,3.3033,3.3011,3.3007,3.2997,3.2957,3.2949,3.2948,3.2899,3.2889,3.2901,3.2895,3.2847,3.2843,3.2841,3.2902,3.2812,3.2812,3.2812,3.2919,3.2922,3.2925,0,0,0,0,0,0,3.3045,3.3043,3.3013,3.3018,3.3013,3.2959,3.2959,3.2948,3.2943,3.2892,3.2881,3.2907,3.2845,3.2841,3.2861,3.2898,3.2812,3.2812,3.2915,3.292,3.2924,3.3022,0,0,0,0,0,0,3.3046,3.3043,3.3062,3.3019,3.3013,3.3034,3.2961,3.2949,3.2944,3.2935,3.2894,3.2885,3.2842,3.2862,3.2861,3.2896,3.2812,3.2911,3.2917,3.2922,3.3016,3.303,3.3042,0,0,0,0,0,3.3047,3.309,3.3063,3.3061,3.3035,3.3036,3.3032,3.2984,3.2947,3.2966,3.2934,3.2886,3.2895,3.2865,3.2863,3.2899,3.2909,3.2916,3.2922,3.301,3.3027,3.3041,0,0,0,0,0,0,3.3134,3.3083,3.3053,3.3083,3.3065,3.302,3.3041,3.3003,3.2993,3.2985,3.2925,3.2917,3.2946,3.2924,3.2891,3.295,3.2895,3.2902,3.2962,3.2978,3.2991,3.2994,3.2812,0,0,0,0,0,3.3158,3.3164,3.3118,3.3149,3.3143,3.3095,3.3093,3.3058,3.3036,3.3028,3.2997,3.2978,3.2977,3.2976,3.2972,3.3014,3.3005,3.3038,3.3052,3.3063,3.3068,3.3093,3.3108,3.2947,3.2947,3.2946,0,0,3.3205,3.3178,3.3184,3.3167,3.3148,3.3157,3.3088,3.3098,3.3104,3.3029,3.3047,3.3025,3.2999,3.3032,3.3045,3.3015,3.3112,3.3071,3.308,3.3079,3.3101,3.3116,3.313,3.2951,3.295,3.295,0,0,3.3294,3.3274,3.33,3.3285,3.326,3.3229,3.3236,3.3199,3.3182,3.32,3.3146,3.3153,3.3151,3.3137,3.3129,3.3224,3.318,3.3224,3.3291,3.3316,3.3328,3.3339,3.3375,3.3388,3.323,3.3231,3.3231,0,3.3355,3.3365,3.3317,3.3333,3.3328,3.3266,3.3292,3.328,3.3255,3.3253,3.3222,3.3223,3.3201,3.3231,3.3256,3.3251,3.3258,3.3226,3.3331,3.3341,3.3351,3.3384,3.3397,3.3236,3.3236,3.3235,3.3234,0,3.3443,3.3452,3.3476,3.3457,3.3455,3.3476,3.3433,3.3437,3.3405,3.3379,3.3401,3.3374,3.3365,3.3371,3.3337,3.3398,3.3381,3.3342,3.3284,3.3372,3.3402,3.3415,3.3244,3.3242,3.324,3.3239,0,0,3.3578,3.3539,3.3549,3.3542,3.3514,3.352,3.3541,3.3535,3.3541,3.3528,3.3545,3.355,3.3515,3.3507,3.3472,3.3495,3.3575,3.3452,3.3451,3.3476,3.3643,3.3673,3.3688,3.3547,3.355,3.3551,3.3646,0,3.3662,3.3695,3.3656,3.3698,3.3707,3.3652,3.367,3.3657,3.3634,3.364,3.3615,3.362,3.3572,3.3568,3.3587,3.356,3.3607,3.3553,3.3562,3.3563,3.3569,3.3703,3.3733,3.3822,3.3657,3.3659,3.366,0,3.3761,3.3758,3.3801,3.3777,3.3779,3.3796,3.3791,3.3797,3.3782,3.3765,3.3761,3.3722,3.3743,3.369,3.3719,3.3684,3.3686,3.3675,3.3677,3.3674,3.3615,3.3704,3.385,3.3863,3.3678,3.3676,3.3675,0,3.3858,3.3864,3.3892,3.3887,3.3859,3.3873,3.3862,3.3845,3.3846,3.3842,3.3843,3.3842,3.384,3.3841,3.3804,3.3769,3.3839,3.3782,3.3825,3.3827,3.3839,3.3839,3.3988,3.3844,3.3843,3.3843,3.3843,0,3.3954,3.3982,3.3935,3.3952,3.3985,3.3943,3.3976,3.3959,3.3946,3.396,3.3912,3.3926,3.3877,3.3887,3.3859,3.3889,3.3889,3.3876,3.3868,3.3879,3.3881,3.3878,3.3871,3.3847,3.3846,3.3845,3.3845,0,3.4064,3.4034,3.4061,3.4035,3.403,3.4055,3.4033,3.4049,3.4027,3.4045,3.4047,3.4012,3.4022,3.3987,3.3989,3.3971,3.4016,3.3998,3.4021,3.4015,3.4061,3.4058,3.4212,3.4231,3.4076,3.4077,3.4079,0,3.4126,3.4148,3.4127,3.4135,3.4127,3.4139,3.4142,3.4103,3.4108,3.4097,3.4115,3.4122,3.4125,3.4144,3.4118,3.4122,3.4103,3.4158,3.4103,3.4116,3.4105,3.4104,3.4107,3.4168,3.417,3.4171,3.4173,0,3.4241,3.4227,3.4233,3.4237,3.4243,3.4243,3.424,3.4249,3.4208,3.4217,3.4228,3.4231,3.4238,3.4246,3.4245,3.4234,3.4198,3.4191,3.4201,3.4212,3.4226,3.4221,3.4052,3.4187,3.4185,3.4184,3.4183,3.4183,3.4329,3.4348,3.4338,3.4349,3.4344,3.4344,3.4359,3.4342,3.4351,3.4354,3.4332,3.4349,3.4339,3.4336,3.433,3.4344,3.4318,3.4333,3.4336,3.434,3.4349,3.4226,3.4343,3.4343,3.4342,3.4342,3.4342,0,3.4442,3.4435,3.4446,3.4445,3.4455,3.4424,3.4421,3.4431,3.4447,3.4442,3.4449,3.4464,3.4474,3.4453,3.446,3.4475,3.4459,3.4478,3.4476,3.4475,3.437,3.4361,3.4492,3.4492,3.4492,3.4492,3.4492,3.4492,3.4501,3.4533,3.4519,3.455,3.4542,3.456,3.4562,3.4563,3.456,3.458,3.4589,3.4577,3.4566,3.4574,3.4582,3.4576,3.4581,3.4606,3.4594,3.4496,3.4481,3.4467,3.4458,3.4608,3.4608,3.4698,3.4698,3.4699]}]]